Back to catalog

OPTICUBE 04

AliveSciencePO
NORAD 41851·PAYLOAD·🇺🇸 United States

Launched Nov 11, 2016 from Vandenberg Space Force Base

Loading…

Next Passes (next 24 hours)

TLE

FreshSource: Space-Track

Epoch: Sep 14, 2026, 13:10 UTC

1 41851U 16067D   26257.54922661  .00001757  00000-0  11235-3 0  9991
2 41851  98.0585 114.4718 0015594 169.9859 190.1683 15.09971304538657

Track OPTICUBE 04 in real time with AllMySat

Download on the App Store